Location: Moscow
(55.7500°N, 37.5830°E)
Time: 06:28:16
(UTC+03:00)

Envisat - Pass Details

Date: 26 October 2021
Orbit: 764 x 766 km, 98.2° (Epoch: 28 November)

Event Time Altitude Azimuth Distance (km) Brightness Sun altitude
Rises 05:59:38 0° 15° (NNE) 3,248 6.4 -12.3°
Reaches altitude 10° 06:01:57 10° 15° (NNE) 2,317 5.6 -11.9°
Maximum altitude 06:07:04 88° 287° (WNW) 774 3.0 -11.2°
Drops below altitude 10° 06:12:09 10° 199° (SSW) 2,299 5.4 -10.5°
Sets 06:14:27 0° 199° (SSW) 3,221 6.1 -10.2°
